Temperature
18 18 19 18 18 18 19 19 19 19 19 19 19 19 19 19 19 19 19 19 19 19 19 19 19 19 19 19 19 19 19 19 19 19 19 19 19 19 19 19 18 18 19
18 18 18 18 18 18 18 18 18 18 19 19 19 19 19 19 19 19 19 19 19 19 19 19 19 19 19 19 19 19 19 19 19 19 19 18 19 18 18 18 18 18 19
18 18 18 18 18 18 18 18 18 18 18 18 18 18 18 18 18 19 18 19 19 19 19 19 19 19 19 19 19 19 19 19 19 19 18 18 18 18 18 18 18 18 18
18 18 18 18 18 18 18 18 18 18 18 18 18 18 18 18 18 18 18 18 18 18 18 18 18 18 18 19 19 19 18 18 18 18 18 17 17 18 18 18 18 18 18
17 17 17 18 18 18 18 18 18 18 18 18 18 18 18 18 18 18 18 18 18 18 18 18 18 18 18 18 18 18 18 18 18 18 17 17 17 18 18 18 18 18 18
17 17 17 18 18 18 17 17 17 17 17 17 17 17 17 17 17 17 17 18 18 18 18 18 18 18 18 18 18 18 18 18 18 17 17 17 17 18 18 18 18 18 18
17 17 17 18 17 17 17 17 17 17 17 17 17 17 17 17 17 17 17 17 17 18 18 18 18 18 18 18 18 18 18 18 17 17 17 17 17 18 18 18 18 18 18
17 17 17 17 17 17 17 17 17 17 17 17 17 17 17 17 17 17 17 17 17 17 17 17 17 17 17 18 18 18 18 18 17 17 17 17 18 18 18 18 18 18 18
17 17 17 17 17 17 17 17 16 16 16 16 16 16 16 16 16 17 17 17 17 17 17 17 17 17 17 17 17 18 18 18 17 17 17 17 18 18 18 18 18 18 18
17 17 16 16 16 16 16 16 16 16 16 16 16 16 16 16 16 16 16 16 17 17 17 17 17 17 17 17 17 17 17 17 17 17 17 17 18 18 18 18 18 18 18
17 17 16 16 16 16 15 15 15 15 15 15 15 15 16 15 15 16 16 16 16 16 16 17 17 17 17 17 17 17 17 17 17 17 17 17 18 18 18 18 18 18 18
17 17 16 16 16 15 15 15 15 15 14 14 14 15 15 15 15 15 15 16 16 16 16 16 16 17 16 17 17 17 17 17 17 17 17 18 18 18 18 18 18 18 18
17 17 16 16 16 15 15 15 14 14 14 14 14 14 14 14 15 15 15 15 15 15 16 16 16 16 16 16 17 17 17 17 17 17 17 18 18 18 18 18 18 18 18
17 17 16 16 16 15 15 14 14 14 14 14 14 14 14 14 14 15 15 15 15 15 15 15 16 16 16 16 16 16 16 17 17 17 17 17 18 18 18 17 18 18 18
17 16 16 15 15 15 14 14 14 14 14 14 13 13 14 14 14 14 14 14 14 15 15 15 15 16 16 16 16 16 16 16 16 17 17 17 18 18 18 17 18 18 18
17 17 16 15 15 15 14 14 14 14 13 13 13 13 13 14 14 14 14 14 14 14 14 15 15 15 15 16 16 16 16 16 16 17 17 17 17 18 17 17 17 18 18
17 17 16 15 15 14 14 14 14 13 14 13 13 13 13 13 13 13 14 14 14 14 14 14 15 15 15 15 16 16 16 16 16 16 17 17 17 17 17 17 17 17 18
17 16 16 15 15 14 14 13 13 13 13 13 13 13 13 13 13 13 13 13 13 14 14 14 14 15 15 15 15 16 16 16 16 16 16 17 17 17 17 17 17 17 17
17 16 16 15 14 14 13 13 13 13 13 13 13 13 12 13 13 13 13 13 13 13 14 14 14 14 15 15 15 15 16 16 16 16 16 17 17 17 17 17 17 17 17
17 16 15 15 14 14 13 13 13 13 13 12 12 12 12 12 12 13 13 13 13 13 13 13 14 14 14 14 15 15 15 16 16 16 16 16 17 17 17 17 17 17 17
17 16 15 15 14 13 13 13 13 13 13 12 12 12 12 12 12 12 12 12 12 13 13 13 13 14 14 14 15 15 15 15 16 16 16 16 16 17 17 17 17 17 17
17 16 15 15 14 13 13 13 12 12 12 12 12 12 12 12 12 12 12 12 12 12 12 13 13 13 14 14 14 15 16 16 15 16 16 16 16 16 16 17 17 17 17
17 16 15 15 14 13 13 12 12 12 12 12 12 12 12 12 12 12 12 12 12 12 12 12 13 13 13 14 14 14 15 16 16 15 16 16 16 16 16 16 17 17 17
17 16 15 15 14 13 13 13 13 12 13 12 12 12 12 12 11 11 11 11 12 12 12 12 12 13 13 13 14 14 14 14 15 15 15 16 16 16 16 16 16 16 17
17 16 15 15 14 13 13 13 12 13 12 12 12 12 12 12 11 11 11 11 12 12 12 12 12 12 13 13 13 13 14 14 14 15 15 15 15 15 16 16 16 16 16
17 16 16 15 14 14 13 13 12 12 12 12 12 12 12 12 11 11 11 11 11 12 12 12 12 12 12 12 13 13 13 14 14 14 15 15 15 15 15 15 16 16 16
Wind_Speed
5 6 7 6 6 6 6 6 6 5 5 5 5 5 5 5 4 4 3 3 2 2 1 1 2 2 3 3 3 3 3 3 3 3 3 3 4 4 4 3 2 6 8
5 6 7 5 5 5 5 5 5 4 4 4 4 3 3 3 3 3 3 3 2 2 2 1 1 1 1 1 1 1 2 2 2 2 1 3 4 3 3 2 3 6 6
6 6 7 4 3 3 3 2 2 3 3 3 3 3 3 4 4 4 4 4 3 3 3 2 2 1 1 1 0 0 1 1 0 0 4 3 5 4 2 2 3 4 4
6 6 5 6 4 3 3 2 1 1 2 3 3 4 5 5 5 5 5 5 4 4 4 4 4 3 2 2 1 1 1 1 1 4 5 1 1 6 2 2 3 4 4
7 7 8 7 5 5 4 4 4 3 3 4 4 5 5 6 6 6 6 5 5 5 5 5 5 5 4 3 3 2 2 3 3 8 2 1 0 4 1 1 2 3 4
7 7 9 7 7 6 5 5 4 4 4 5 5 5 5 6 7 7 7 6 6 6 6 6 6 6 6 5 4 4 4 4 7 5 2 2 1 4 1 2 2 3 4
7 7 8 7 6 6 5 4 3 3 4 4 5 4 4 6 7 8 8 8 7 7 7 7 7 7 8 6 5 4 4 5 8 4 4 3 1 2 2 2 3 3 4
7 6 7 7 6 6 5 4 3 3 2 3 4 4 4 5 5 5 6 7 7 8 8 8 10 9 9 8 7 6 6 8 8 6 4 3 2 2 3 3 3 4 4
5 5 4 4 4 4 5 5 6 5 4 3 4 4 4 4 5 5 6 6 7 8 9 9 10 10 9 8 7 7 6 7 9 6 6 4 3 3 4 4 4 4 4
4 3 3 3 4 4 4 5 6 5 5 4 3 3 3 4 4 5 6 5 6 7 8 8 9 9 9 8 7 7 6 8 9 7 6 2 3 4 5 4 5 5 5
3 2 3 3 4 4 4 5 4 3 3 4 3 1 5 6 5 5 4 4 5 5 6 7 8 8 9 7 6 6 7 8 7 7 6 2 2 5 6 5 5 6 6
2 2 2 3 3 4 5 5 5 6 5 5 5 5 5 5 5 6 3 4 5 5 6 7 7 8 9 7 7 7 8 8 8 7 5 3 5 6 6 6 6 7 7
1 1 2 2 3 4 4 5 5 5 5 5 5 5 5 5 5 5 4 4 5 6 6 6 7 7 7 7 6 7 7 7 7 7 4 3 5 7 6 6 7 7 7
1 1 1 2 3 4 5 5 5 5 5 5 5 6 5 4 5 5 4 4 4 4 3 5 4 6 7 8 9 7 7 7 7 7 4 3 5 7 7 6 7 7 8
2 1 0 2 4 5 5 5 5 5 6 6 5 5 6 5 5 5 5 4 5 4 4 4 4 5 6 7 7 7 7 9 8 8 5 5 6 6 7 7 7 7 8
3 2 1 1 3 4 5 5 5 5 4 5 5 5 6 5 5 5 5 4 5 4 4 4 4 4 4 4 6 6 7 7 8 8 7 6 8 7 7 7 7 8 9
3 2 1 1 2 4 5 5 5 5 5 5 5 6 6 6 6 5 5 5 5 5 5 4 4 4 4 4 6 6 6 6 7 7 7 6 7 9 8 8 9 9 9
4 2 1 1 2 3 4 5 4 4 5 4 5 5 6 6 6 5 5 5 5 5 4 4 4 4 4 4 4 5 5 5 7 7 7 7 6 6 8 10 9 10 10
4 3 2 0 1 2 3 3 3 3 4 4 4 5 6 7 7 6 5 5 5 4 4 4 3 4 4 4 5 5 5 5 5 6 7 7 6 6 6 9 11 10 9
5 4 2 1 1 2 2 3 2 3 3 3 4 5 6 6 7 6 5 5 6 4 4 3 3 3 3 4 5 5 4 4 4 5 6 6 6 7 7 7 8 11 11
7 5 3 2 0 1 2 3 3 3 3 3 4 5 5 6 6 6 5 5 5 4 5 5 4 4 3 3 3 4 4 5 4 4 5 5 6 5 6 7 8 7 9
8 6 4 2 1 1 1 3 3 3 3 3 3 3 5 5 6 5 6 5 5 4 5 5 4 3 2 2 3 3 3 4 3 4 4 4 5 4 5 7 7 7 7
8 7 4 3 2 1 0 1 2 2 2 2 3 3 4 5 5 6 6 6 5 5 4 5 4 3 3 2 2 2 2 2 2 3 3 4 4 3 4 5 6 7 8
9 7 6 4 3 2 2 2 3 3 3 3 4 3 4 3 4 5 5 5 5 4 4 4 4 4 3 2 2 2 3 2 2 2 2 2 3 3 3 4 5 5 7
9 8 6 5 4 3 2 1 3 3 3 3 3 3 4 3 4 4 5 5 5 4 4 5 5 4 3 3 2 2 2 2 3 2 2 1 1 3 2 3 4 4 6
9 8 7 6 5 4 4 4 3 3 3 4 3 4 3 3 3 4 4 4 4 4 4 4 4 4 3 3 3 2 2 2 2 2 3 3 2 1 2 3 4 4 4
Wind_Direction
155 154 132 161 160 159 159 156 152 152 153 155 158 163 166 169 172 171 170 168 164 158 146 128 118 108 100 96 88 82 83 82 81 78 81 83 80 87 96 109 172 121 103
142 143 128 154 155 158 161 165 167 168 171 176 184 182 190 197 196 193 197 201 200 199 204 209 182 153 129 104 86 68 67 69 69 70 93 147 119 97 104 98 19 85 109
128 132 137 135 140 145 154 172 185 199 205 210 218 220 224 230 229 226 227 230 232 234 234 238 246 244 221 205 178 13 19 16 29 351 250 216 133 124 119 117 107 114 119
113 119 111 102 96 86 72 55 351 284 271 261 255 251 250 249 246 245 247 248 251 255 254 255 256 251 250 253 256 284 299 302 284 258 239 192 143 113 123 143 146 141 134
98 98 87 78 77 74 67 54 39 10 337 311 290 276 272 266 264 262 263 262 263 262 261 262 263 256 252 254 258 267 283 282 269 257 264 259 149 108 137 157 163 162 156
96 89 84 69 65 63 62 59 48 18 352 334 314 295 292 287 279 273 269 265 262 266 268 271 272 269 262 258 261 264 274 278 258 252 248 238 195 119 188 198 188 175 173
99 94 86 68 57 50 46 46 45 17 344 326 312 308 296 283 274 273 272 272 268 267 266 265 268 266 262 256 253 261 273 278 268 263 244 237 166 122 230 222 206 197 189
97 92 88 82 58 42 30 25 19 10 344 326 316 316 312 301 290 280 277 271 268 268 267 265 260 254 253 253 249 249 258 271 258 256 248 242 112 221 241 229 215 207 195
99 88 74 68 68 63 49 30 16 4 353 334 322 316 314 308 295 285 276 271 264 261 263 261 258 258 251 251 251 249 249 263 273 260 252 241 127 246 250 232 222 213 200
106 88 68 48 30 20 32 48 17 7 1 344 330 325 306 273 262 267 266 269 265 260 259 261 259 258 251 250 253 257 255 254 253 254 252 212 133 254 254 237 223 213 206
111 85 63 39 32 18 1 22 354 350 355 303 280 284 279 282 281 259 271 277 263 261 257 256 263 261 250 239 241 251 250 251 252 258 254 100 225 257 257 239 221 213 208
124 91 54 25 18 6 356 354 342 337 339 323 323 317 301 296 288 285 249 251 258 255 247 239 246 248 243 234 222 225 238 245 254 251 239 145 249 258 258 239 216 214 210
126 77 24 7 10 359 353 348 346 339 336 326 331 320 305 297 288 279 283 251 248 242 249 235 236 233 230 232 228 222 234 244 250 254 240 166 250 256 255 237 216 211 211
183 43 16 355 359 359 354 349 336 338 337 336 335 329 319 311 303 304 292 301 287 266 258 256 249 241 235 234 230 228 231 237 239 250 248 188 253 256 249 231 218 213 210
197 204 16 345 351 354 356 338 338 344 339 339 336 326 327 316 313 310 299 298 288 287 270 266 259 249 244 234 233 230 233 235 238 240 235 199 240 250 247 230 220 216 211
207 205 165 326 350 343 343 340 350 344 341 337 343 338 335 329 324 313 304 300 299 294 290 276 266 256 247 238 233 227 234 239 239 238 243 219 212 226 236 226 219 221 210
202 199 177 303 335 342 344 344 342 338 342 347 353 344 343 337 329 320 313 310 310 301 288 276 270 263 248 238 237 232 232 239 239 238 239 238 218 203 214 218 214 221 212
200 195 177 271 327 346 345 334 336 340 343 345 347 348 347 344 338 331 323 321 316 305 294 282 274 263 257 250 245 240 235 234 239 241 241 231 228 224 200 201 208 214 213
200 199 197 264 326 340 339 327 330 336 339 341 348 355 351 349 341 337 336 329 324 313 302 295 288 278 269 262 254 241 241 238 246 246 242 237 226 226 220 185 198 207 211
199 197 181 177 290 333 324 322 331 327 331 345 351 357 351 345 346 340 332 336 335 323 317 311 299 282 278 269 260 253 242 237 238 248 251 241 235 229 228 211 199 201 203
196 199 186 215 209 310 332 328 335 342 335 341 349 355 347 346 346 344 337 344 339 337 330 322 311 290 280 275 258 248 236 233 236 235 244 247 234 229 228 219 216 210 197
196 196 196 194 204 293 349 336 334 332 325 339 331 338 346 348 347 342 345 339 345 337 335 335 326 306 291 272 270 259 239 208 217 224 226 234 240 222 232 229 220 216 217
196 193 193 191 190 200 262 316 308 301 285 308 340 350 349 345 345 342 344 340 342 336 343 341 335 323 304 287 279 272 262 245 200 194 219 225 232 235 235 240 234 224 218
192 187 190 186 194 190 219 288 320 320 335 346 337 343 337 345 346 342 341 341 342 344 343 338 350 331 311 303 294 288 290 312 279 218 187 206 217 225 234 237 242 238 225
184 183 188 187 194 200 227 252 282 305 330 331 326 333 331 357 351 351 346 344 344 343 346 344 340 336 323 312 308 298 285 275 266 274 243 211 215 222 232 235 244 248 239
181 183 188 194 198 204 223 238 262 297 306 317 325 337 333 347 347 1 347 342 342 344 342 338 331 334 335 326 310 297 293 283 272 266 264 259 260 240 239 229 234 241 243
Height
1530 1531 1531 1533 1534 1535 1536 1537 1538 1538 1538 1538 1539 1539 1539 1539 1539 1539 1539 1539 1539 1538 1538 1538 1537 1537 1537 1536 1536 1535 1535 1534 1534 1533 1533 1532 1532 1532 1531 1531 1531 1532 1530
1531 1532 1532 1534 1535 1535 1536 1537 1538 1538 1538 1539 1539 1539 1539 1539 1539 1539 1539 1539 1539 1539 1538 1538 1538 1537 1537 1537 1536 1536 1535 1535 1534 1534 1534 1533 1533 1532 1532 1532 1532 1532 1531
1531 1532 1533 1534 1535 1536 1537 1537 1538 1538 1538 1538 1539 1539 1539 1539 1539 1539 1539 1539 1538 1538 1538 1538 1538 1538 1537 1537 1536 1536 1536 1535 1535 1534 1534 1535 1534 1533 1533 1533 1533 1533 1533
1532 1533 1534 1534 1535 1535 1536 1536 1537 1537 1537 1538 1538 1538 1538 1538 1538 1538 1538 1538 1538 1538 1538 1538 1537 1537 1537 1537 1536 1536 1536 1535 1535 1535 1536 1536 1536 1534 1533 1533 1533 1533 1533
1532 1533 1533 1534 1535 1535 1535 1536 1536 1536 1536 1536 1536 1536 1536 1537 1537 1537 1537 1536 1536 1537 1537 1537 1536 1537 1536 1536 1536 1536 1536 1535 1535 1535 1536 1535 1535 1534 1534 1534 1534 1534 1534
1533 1534 1534 1534 1534 1535 1535 1535 1535 1534 1535 1535 1534 1535 1534 1535 1535 1535 1535 1535 1535 1535 1535 1536 1535 1535 1536 1536 1535 1535 1535 1535 1535 1536 1536 1535 1535 1534 1534 1534 1534 1534 1535
1535 1535 1534 1534 1534 1534 1534 1534 1533 1533 1533 1532 1532 1532 1532 1532 1532 1532 1532 1532 1532 1533 1533 1534 1534 1534 1534 1534 1534 1534 1534 1535 1535 1535 1535 1535 1535 1534 1534 1534 1534 1534 1535
1535 1535 1535 1534 1534 1534 1533 1533 1532 1532 1531 1531 1530 1530 1530 1530 1530 1530 1530 1530 1530 1530 1531 1531 1532 1532 1532 1533 1533 1533 1533 1533 1535 1536 1535 1535 1534 1534 1534 1534 1534 1534 1535
1536 1535 1535 1535 1534 1533 1532 1531 1531 1530 1530 1529 1528 1527 1527 1527 1527 1527 1527 1527 1527 1528 1528 1528 1529 1530 1530 1530 1531 1531 1532 1532 1533 1534 1534 1534 1533 1533 1533 1533 1534 1534 1535
1536 1536 1535 1534 1534 1533 1532 1530 1529 1528 1528 1527 1526 1525 1525 1525 1524 1524 1524 1524 1525 1525 1525 1526 1526 1527 1527 1528 1528 1529 1530 1531 1532 1533 1533 1533 1532 1532 1533 1533 1533 1534 1535
1536 1536 1535 1534 1533 1532 1531 1530 1528 1527 1526 1525 1525 1523 1523 1523 1523 1522 1522 1521 1521 1522 1522 1523 1523 1523 1525 1525 1526 1527 1528 1529 1531 1531 1532 1531 1531 1531 1532 1532 1533 1533 1534
1537 1536 1535 1534 1533 1532 1530 1529 1527 1527 1525 1524 1523 1522 1522 1521 1520 1520 1519 1518 1518 1518 1519 1519 1520 1520 1521 1522 1523 1524 1526 1527 1528 1529 1530 1529 1529 1530 1531 1532 1532 1533 1534
1536 1535 1535 1534 1532 1531 1530 1529 1527 1525 1524 1523 1522 1521 1520 1520 1519 1519 1518 1517 1516 1516 1516 1516 1517 1518 1518 1520 1521 1522 1523 1524 1526 1527 1528 1527 1528 1528 1529 1530 1531 1532 1533
1535 1535 1534 1533 1532 1531 1530 1528 1526 1525 1523 1522 1521 1519 1519 1518 1517 1517 1516 1515 1515 1514 1514 1514 1514 1515 1515 1516 1517 1519 1520 1521 1523 1524 1525 1525 1526 1527 1528 1529 1530 1531 1532
1534 1534 1533 1532 1532 1530 1528 1526 1526 1524 1523 1521 1519 1518 1517 1517 1516 1515 1514 1513 1513 1512 1512 1511 1512 1512 1512 1513 1514 1516 1517 1518 1520 1522 1523 1522 1524 1525 1526 1527 1529 1530 1531
1534 1533 1532 1531 1530 1529 1528 1527 1525 1524 1522 1521 1519 1518 1516 1516 1514 1513 1513 1512 1511 1510 1510 1509 1509 1509 1510 1510 1511 1512 1514 1516 1517 1518 1520 1521 1521 1523 1524 1526 1527 1528 1529
1533 1532 1531 1530 1529 1528 1527 1525 1524 1523 1522 1520 1519 1517 1516 1514 1513 1512 1511 1510 1509 1508 1508 1507 1507 1507 1507 1508 1508 1509 1511 1512 1514 1516 1518 1519 1520 1521 1522 1524 1525 1526 1528
1531 1531 1530 1529 1528 1527 1525 1524 1524 1523 1521 1520 1518 1517 1515 1514 1512 1511 1510 1509 1507 1506 1506 1505 1505 1505 1505 1506 1506 1507 1508 1510 1511 1513 1515 1516 1518 1520 1521 1522 1523 1524 1526
1529 1529 1529 1528 1527 1526 1524 1523 1522 1522 1520 1519 1518 1516 1514 1513 1511 1510 1508 1507 1506 1505 1504 1504 1504 1504 1504 1504 1504 1505 1506 1507 1508 1510 1512 1514 1516 1517 1519 1520 1521 1523 1525
1528 1528 1527 1526 1526 1525 1524 1523 1522 1521 1520 1519 1517 1515 1513 1512 1510 1509 1508 1506 1505 1504 1503 1502 1502 1502 1502 1502 1503 1503 1504 1505 1506 1507 1509 1511 1513 1514 1517 1518 1519 1521 1522
1526 1526 1526 1526 1525 1524 1524 1523 1522 1521 1520 1518 1517 1514 1513 1511 1510 1509 1507 1506 1504 1503 1502 1502 1501 1501 1501 1501 1501 1502 1502 1502 1503 1504 1506 1508 1510 1511 1513 1515 1518 1519 1521
1524 1524 1525 1525 1524 1523 1522 1522 1521 1520 1519 1517 1516 1514 1513 1511 1509 1509 1507 1506 1504 1502 1501 1500 1500 1499 1499 1499 1500 1501 1501 1502 1501 1502 1504 1505 1507 1509 1511 1513 1515 1517 1519
1522 1523 1523 1523 1523 1522 1521 1521 1520 1519 1518 1518 1516 1514 1512 1510 1509 1507 1506 1505 1503 1502 1501 1500 1499 1499 1498 1498 1499 1500 1500 1499 1500 1501 1501 1503 1504 1506 1508 1510 1512 1515 1516
1519 1520 1522 1522 1522 1521 1521 1521 1520 1520 1519 1517 1516 1514 1512 1510 1509 1507 1505 1504 1503 1502 1501 1500 1499 1498 1498 1498 1498 1498 1499 1499 1500 1500 1500 1501 1502 1503 1505 1507 1509 1511 1513
1517 1518 1519 1520 1520 1520 1520 1519 1519 1519 1518 1517 1515 1514 1512 1510 1508 1506 1505 1504 1503 1502 1500 1499 1498 1497 1497 1497 1497 1497 1497 1498 1498 1499 1499 1500 1500 1501 1502 1504 1506 1508 1509
1514 1515 1517 1518 1518 1518 1518 1518 1518 1518 1517 1516 1515 1514 1512 1511 1509 1507 1505 1504 1502 1501 1500 1499 1498 1497 1496 1496 1496 1496 1496 1497 1497 1498 1498 1499 1499 1500 1500 1501 1503 1504 1506